Regional Weather Roundup
Issued by NWS Albany, NY

Home | Current Version | Previous Version | Text Only | Print | Product List | Glossary On
Versions: 1 2 3 4 5 6 7 8 9 10 11 12 13 14 15 16 17 18 19 20 21 22 23 24 25 26 27
000
ASUS41 KALY 192010
RWRALY

NEW YORK STATE HOURLY WEATHER ROUNDUP
NATIONAL WEATHER SERVICE ALBANY NY
300 PM EST THU JAN 19 2017

NOTE: "FAIR" INDICATES FEW OR NO CLOUDS BELOW 12,000 FEET WITH NO
SIGNIFICANT WEATHER AND/OR NO OBSTRUCTIONS TO VISIBILITY.

NYZ032-033-038>043-046>054-057>066-NYZ062>081-082-084-192100-
EAST


CITY           SKY/WX    TMP DP  RH WIND       PRES   REMARKS
ALBANY         CLOUDY    41  33  73 W10       30.00S
GLENS FALLS    CLOUDY    42  34  73 CALM      29.97S
POUGHKEEPSIE   SUNNY     45  34  65 NW8       29.97S
NEWBURGH       PTSUNNY   46  36  66 VRB6      29.98S
MONTGOMERY     CLOUDY    47  34  60 W7        29.95F
WHITE PLAINS   PTSUNNY   45  34  65 NW9       29.97S
ISLIP          CLOUDY    48  35  60 N8        29.96F
NEW YORK CITY  CLOUDY    46  34  62 NW13      29.99S
CENTRAL PARK   CLOUDY    45  34  65 VRB3      30.02S
$$

NYZ005>009-017-018-044>046-055-056-192100-
CENTRAL


CITY           SKY/WX    TMP DP  RH WIND       PRES   REMARKS
FULTON         LGT RAIN  37  35  92 SW5       30.01F FOG     WCI  33
SYRACUSE       DRIZZLE   36  34  92 W10       30.02S WCI  28
ROME           CLOUDY    36  36 100 W7        30.02F WCI  30
ELMIRA         CLOUDY    41  33  73 NE6       29.98F
BINGHAMTON     CLOUDY    35  32  88 NW6       29.97S WCI  30
MONTICELLO     CLOUDY    37  34  87 NW6       29.97S WCI  33
$$

NYZ026>034-041>043-087-192100-
NORTH


CITY           SKY/WX    TMP DP  RH WIND       PRES   REMARKS
WATERTOWN      CLOUDY    38  36  92 SW6       30.00F WCI  33
FORT DRUM      NOT AVBL
OGDENSBURG     LGT RAIN  39  37  91 CALM      29.99S
MASSENA        CLOUDY    38  33  82 SW5       30.00S WCI  34
SARANAC LAKE   FLURRIES  33  30  88 W3        29.92S
PLATTSBURGH    CLOUDY    39  29  67 NW8       29.97F WCI  33
$$

NYZ001>004-010>016-019>021-085-192100-
WEST


CITY           SKY/WX    TMP DP  RH WIND       PRES   REMARKS
NIAGARA FALLS  CLOUDY    36  30  79 SW8       29.99F WCI  30
BUFFALO        DRIZZLE   34  32  92 W9        29.99F FOG     WCI  27
DUNKIRK        CLOUDY    35  34  96 W5        30.01F FOG     WCI  31
JAMESTOWN      CLOUDY    34  30  86 SW6       29.96S WCI  29
WELLSVILLE     CLOUDY    37  32  82 SW3       29.96F
ROCHESTER      CLOUDY    37  31  78 W7        30.01F WCI  32
PENN YAN       CLOUDY    37  32  82 E5        30.00F WCI  33
$$

             KEY
       WCI = WIND CHILL INDEX
       VSB = VISIBILITY
       HX  = HEAT INDEX
$$




USA.gov is the U.S. government's official web portal to all federal, state and local government web resources and services.